• In Netherlands
  • List of Countries
  • For 7 days
  • Water Temperature
  • Satellite Maps
  • Weather Map
  • Weather Widgets
  • user-avatar
    Login

    Hourly Weather Qala i Naw

    Today, 18 January, Thursday

    Time Temperature Precipitation Wind Pressure Humidity
    00:00 +4°C° 0 mm 1 mps 680 mmHg 35%
    01:00 +4°C° 0 mm 1 mps 680 mmHg 34%
    02:00 +4°C° 0 mm 1 mps 680 mmHg 33%
    03:00 +4°C° 0 mm 1 mps 680 mmHg 32%
    04:00 +4°C° 0 mm 1 mps 680 mmHg 32%
    05:00 +3°C° 0 mm 2 mps 680 mmHg 31%
    06:00 +3°C° 0 mm 2 mps 680 mmHg 31%
    07:00 +3°C° 0 mm 2 mps 680 mmHg 30%
    08:00 +5°C° 0 mm 2 mps 680 mmHg 26%
    09:00 +8°C° 0 mm 2 mps 681 mmHg 21%
    10:00 +10°C° 0 mm 2 mps 681 mmHg 17%
    11:00 +12°C° 0 mm 2 mps 681 mmHg 16%
    12:00 +13°C° 0 mm 2 mps 680 mmHg 15%
    13:00 +14°C° 0 mm 3 mps 680 mmHg 14%
    14:00 +13°C° 0 mm 3 mps 680 mmHg 15%
    15:00 +13°C° 0 mm 3 mps 679 mmHg 17%
    16:00 +13°C° 0 mm 3 mps 679 mmHg 18%
    17:00 +12°C° 0 mm 2 mps 679 mmHg 21%
    18:00 +9°C° 0 mm 2 mps 679 mmHg 23%
    19:00 +9°C° 0 mm 1 mps 679 mmHg 26%
    20:00 +8°C° 0 mm 1 mps 679 mmHg 26%
    21:00 +8°C° 0 mm 1 mps 679 mmHg 26%
    22:00 +8°C° 0 mm 1 mps 679 mmHg 26%
    23:00 +8°C° 0 mm 1 mps 679 mmHg 25%

    Tomorrow, 19 January, Friday

    Time Temperature Precipitation Wind Pressure Humidity
    00:00 +6°C° 0 mm 2 mps 679 mmHg 24%
    01:00 +6°C° 0 mm 2 mps 679 mmHg 23%
    02:00 +6°C° 0 mm 2 mps 679 mmHg 23%
    03:00 +6°C° 0 mm 2 mps 680 mmHg 23%
    04:00 +5°C° 0 mm 3 mps 680 mmHg 22%
    05:00 +5°C° 0 mm 3 mps 680 mmHg 22%
    06:00 +5°C° 0 mm 3 mps 680 mmHg 22%
    07:00 +5°C° 0 mm 3 mps 681 mmHg 23%
    08:00 +9°C° 0 mm 3 mps 681 mmHg 20%
    09:00 +11°C° 0 mm 3 mps 682 mmHg 18%
    10:00 +13°C° 0 mm 3 mps 683 mmHg 15%
    11:00 +16°C° 0 mm 3 mps 682 mmHg 14%
    12:00 +17°C° 0 mm 3 mps 682 mmHg 13%
    13:00 +18°C° 0 mm 3 mps 682 mmHg 11%
    14:00 +18°C° 0 mm 2 mps 682 mmHg 13%
    15:00 +17°C° 0 mm 2 mps 682 mmHg 14%
    16:00 +18°C° 0 mm 1 mps 682 mmHg 15%
    17:00 +15°C° 0 mm 2 mps 682 mmHg 16%
    18:00 +14°C° 0 mm 2 mps 682 mmHg 17%
    19:00 +12°C° 0 mm 2 mps 682 mmHg 18%
    20:00 +10°C° 0 mm 2 mps 682 mmHg 19%
    21:00 +10°C° 0 mm 2 mps 682 mmHg 19%
    22:00 +10°C° 0 mm 3 mps 682 mmHg 20%
    23:00 +9°C° 0 mm 3 mps 682 mmHg 20%

    Day after tomorrow, 20 January, Saturday

    Time Temperature Precipitation Wind Pressure Humidity
    00:00 +9°C° 0 mm 3 mps 682 mmHg 21%
    01:00 +9°C° 0 mm 3 mps 682 mmHg 22%
    02:00 +8°C° 0 mm 3 mps 681 mmHg 22%
    03:00 +8°C° 0 mm 3 mps 681 mmHg 22%
    04:00 +8°C° 0 mm 3 mps 681 mmHg 23%
    05:00 +8°C° 0 mm 3 mps 681 mmHg 23%
    06:00 +8°C° 0 mm 3 mps 681 mmHg 23%
    07:00 +7°C° 0 mm 3 mps 681 mmHg 23%
    08:00 +10°C° 0 mm 2 mps 681 mmHg 20%
    09:00 +14°C° 0 mm 2 mps 682 mmHg 17%
    10:00 +16°C° 0 mm 2 mps 682 mmHg 14%
    11:00 +17°C° 0 mm 2 mps 682 mmHg 12%
    12:00 +19°C° 0 mm 2 mps 681 mmHg 11%
    13:00 +20°C° 0 mm 2 mps 681 mmHg 10%
    14:00 +19°C° 0 mm 2 mps 680 mmHg 11%
    15:00 +19°C° 0 mm 2 mps 680 mmHg 12%
    16:00 +19°C° 0 mm 3 mps 680 mmHg 13%
    17:00 +16°C° 0 mm 2 mps 679 mmHg 14%
    18:00 +14°C° 0 mm 2 mps 679 mmHg 16%
    19:00 +12°C° 0 mm 1 mps 679 mmHg 18%
    20:00 +12°C° 0 mm 1 mps 679 mmHg 19%
    21:00 +11°C° 0 mm 1 mps 679 mmHg 19%
    22:00 +11°C° 0 mm 1 mps 679 mmHg 20%
    23:00 +10°C° 0 mm 1 mps 679 mmHg 20%

    21 January, Sunday

    Time Temperature Precipitation Wind Pressure Humidity
    00:00 +10°C° 0 mm 1 mps 679 mmHg 21%
    01:00 +9°C° 0 mm 1 mps 679 mmHg 21%
    02:00 +9°C° 0 mm 1 mps 679 mmHg 23%
    03:00 +8°C° 0 mm 1 mps 679 mmHg 25%
    04:00 +8°C° 0 mm 1 mps 679 mmHg 27%
    05:00 +6°C° 0 mm 2 mps 679 mmHg 29%
    06:00 +5°C° 0 mm 2 mps 679 mmHg 32%
    07:00 +5°C° 0 mm 2 mps 679 mmHg 34%
    08:00 +6°C° 0 mm 2 mps 680 mmHg 33%
    09:00 +7°C° 0 mm 2 mps 680 mmHg 32%
    10:00 +8°C° 0 mm 3 mps 680 mmHg 30%
    11:00 +9°C° 0 mm 3 mps 680 mmHg 31%
    12:00 +9°C° 0 mm 3 mps 679 mmHg 31%
    13:00 +10°C° 0 mm 3 mps 679 mmHg 31%
    14:00 +9°C° 0 mm 3 mps 679 mmHg 34%
    15:00 +9°C° 0 mm 3 mps 679 mmHg 37%
    16:00 +8°C° 0 mm 4 mps 679 mmHg 39%
    17:00 +8°C° 0 mm 3 mps 679 mmHg 46%
    18:00 +7°C° 0 mm 3 mps 679 mmHg 52%
    19:00 +5°C° 0 mm 2 mps 680 mmHg 58%
    20:00 +5°C° 0 mm 2 mps 680 mmHg 61%
    21:00 +4°C° 0 mm 2 mps 680 mmHg 64%
    22:00 +4°C° 0 mm 2 mps 680 mmHg 67%
    23:00 +4°C° 0 mm 2 mps 680 mmHg 68%

    22 January, Monday

    Time Temperature Precipitation Wind Pressure Humidity
    00:00 +4°C° 0 mm 1 mps 680 mmHg 70%
    01:00 +4°C° 0 mm 1 mps 680 mmHg 71%
    02:00 +4°C° 0 mm 1 mps 680 mmHg 72%
    03:00 +3°C° 0 mm 1 mps 680 mmHg 72%
    04:00 +3°C° 0 mm 1 mps 680 mmHg 72%
    05:00 +3°C° 0 mm 1 mps 680 mmHg 74%
    06:00 +3°C° 0 mm 1 mps 680 mmHg 76%
    07:00 +2°C° 0 mm 1 mps 681 mmHg 77%
    08:00 +3°C° 0 mm 1 mps 681 mmHg 71%
    09:00 +5°C° 0 mm 1 mps 681 mmHg 64%
    10:00 +6°C° 0 mm 1 mps 681 mmHg 57%
    11:00 +7°C° 0 mm 1 mps 681 mmHg 53%
    12:00 +7°C° 0 mm 2 mps 681 mmHg 48%
    13:00 +8°C° 0 mm 2 mps 680 mmHg 44%
    14:00 +8°C° 0 mm 2 mps 680 mmHg 44%
    15:00 +8°C° 0 mm 2 mps 680 mmHg 43%
    16:00 +8°C° 0 mm 2 mps 680 mmHg 43%
    17:00 +7°C° 0 mm 2 mps 680 mmHg 47%
    18:00 +7°C° 0 mm 1 mps 680 mmHg 51%
    19:00 +6°C° 0 mm 1 mps 681 mmHg 55%
    20:00 +6°C° 0 mm 1 mps 681 mmHg 55%
    21:00 +6°C° 0 mm 1 mps 680 mmHg 55%
    22:00 +5°C° 0 mm 1 mps 680 mmHg 55%
    23:00 +5°C° 0 mm 1 mps 680 mmHg 55%

    23 January, Tuesday

    Time Temperature Precipitation Wind Pressure Humidity
    00:00 +5°C° 0 mm 1 mps 679 mmHg 55%
    01:00 +4°C° 0 mm 0 mps 679 mmHg 54%
    02:00 +4°C° 0 mm 0 mps 679 mmHg 54%
    03:00 +4°C° 0 mm 0 mps 678 mmHg 54%
    04:00 +4°C° 0 mm 1 mps 678 mmHg 53%
    05:00 +4°C° 0 mm 1 mps 678 mmHg 53%
    06:00 +5°C° 0 mm 1 mps 678 mmHg 54%
    07:00 +5°C° 0 mm 1 mps 678 mmHg 54%
    08:00 +8°C° 0 mm 1 mps 679 mmHg 44%
    09:00 +11°C° 0 mm 1 mps 680 mmHg 34%
    10:00 +14°C° 0 mm 1 mps 680 mmHg 24%
    11:00 +15°C° 0 mm 1 mps 680 mmHg 21%
    12:00 +16°C° 0 mm 1 mps 679 mmHg 18%
    13:00 +18°C° 0 mm 1 mps 679 mmHg 15%
    14:00 +18°C° 0 mm 1 mps 679 mmHg 16%
    15:00 +17°C° 0 mm 2 mps 679 mmHg 17%
    16:00 +17°C° 0 mm 2 mps 678 mmHg 18%
    17:00 +15°C° 0 mm 1 mps 678 mmHg 22%
    18:00 +13°C° 0 mm 1 mps 678 mmHg 25%
    19:00 +11°C° 0 mm 1 mps 678 mmHg 28%
    20:00 +11°C° 0 mm 1 mps 678 mmHg 28%
    21:00 +11°C° 0 mm 1 mps 678 mmHg 28%
    22:00 +9°C° 0 mm 2 mps 678 mmHg 28%
    23:00 +9°C° 0 mm 2 mps 678 mmHg 28%
    Show more